Погода в Подгорице

Черногория     42°26′11″N   19°15′09″E
темп.,
°C
ветер,
м/с
пор.,
м/с
влажн.,
%
обл.,
%
осадки,
мм/ч
давл.,
гПа
погр.,
м
26 февраля, пт
пт2601:00+10ссв336230 0.0 103040
04:00+9ссв33580 0.0 102942
07:00+9ссв33590 0.0 102942
10:00+15юз01460 0.0 1028310
13:00+17ююз21500 0.0 1026414
16:00+16ю11580 0.0 1024216
19:00+12ссв12710 0.0 102423
22:00+10ссв22690 0.0 102428
27 февраля, сб
сб2701:00+10ссв23630 0.0 102430
04:00+8ссв33600 0.0 102335
07:00+8ссв33610 0.0 102347
10:00+15ссв13470 0.0 1023460
13:00+17св25410 0.0 10221173
16:00+15св58530 0.0 10231052
19:00+10ссв57650 0.0 1025203
22:00+8ссв68650 0.0 1026288
28 февраля, вс
вс2801:00+7ссв57670 0.0 1027250
04:00+5ссв586521 0.0 1027275
07:00+4ссв586211 0.0 1028341
10:00+9св68470 0.0 1028928
13:00+11св57430 0.0 10281038
16:00+10св57460 0.0 1027855
19:00+5ссв57580 0.0 1029174
22:00+4ссв46630 0.0 1031159
1 марта, пн
пн101:00+3ссв46630 0.0 1031139
04:00+2ссв45590 0.0 1030105
07:00+2ссв45550 0.0 1031107
10:00+10ссв23330 0.0 1030565
13:00+13всв13290 0.0 1029947
16:00+12всв24410 0.0 1028694
19:00+6ссв46560 0.0 1031113
22:00+5ссв57620 0.0 1033173
2 марта, вт
вт201:00+4ссв45670 0.0 1033131
04:00+3ссв45690 0.0 1033113
07:00+3ссв45670 0.0 1034117
10:00+10с12420 0.0 1033535
13:00+12ю32430 0.0 1032565
16:00+11ю11530 0.0 1032334
19:00+7ссв22620 0.0 103323
22:00+6ссв23560 0.0 103432